period_start,C,m1,H,J0,J1,J2,J3,J4,J5,JA,JB,JC,JD,JJ,JK,JN,#
2015-03-12 00:04:57,0.17,1.08,0.00,21.65,27.07,30.11,4.79,24.23,1019.68,2034.03,3021.95,3005.43,3252.71,349.97,350.54,5.57,0000 0000 0000 0000 000000
2015-03-12 00:09:58,0.18,1.08,0.00,21.64,27.07,30.16,4.76,24.22,1019.46,2034.02,3019.81,3003.81,3250.99,350.31,350.48,5.60,0000 0000 0000 0000 000000
2015-03-12 00:14:59,0.18,1.09,0.00,21.67,27.07,30.18,4.92,24.18,1019.07,2034.03,3017.80,3002.31,3249.41,350.67,350.78,5.63,0000 0000 0000 0000 000000
2015-03-12 00:20:01,0.18,1.09,0.00,21.69,27.08,30.21,4.81,24.31,1018.90,2034.01,3015.70,3000.77,3247.70,349.57,349.63,5.66,0000 0000 0000 0000 000000
2015-03-12 00:25:02,0.17,1.10,0.00,21.69,27.10,30.27,4.79,24.22,1018.65,2034.00,3013.65,2999.28,3246.01,349.65,349.49,5.68,0000 0000 0000 0000 000000
2015-03-12 00:30:04,0.18,1.10,0.00,21.70,27.10,30.24,4.90,24.32,1018.58,2034.00,3011.65,2997.78,3244.44,350.43,350.42,5.71,0000 0000 0000 0000 000000
2015-03-12 00:35:05,0.17,1.11,0.00,21.75,27.11,30.27,4.75,24.07,1018.57,2034.00,3009.57,2996.29,3242.75,349.63,349.54,5.74,0000 0000 0000 0000 000000
2015-03-12 00:40:06,0.18,1.12,0.00,21.74,27.12,30.30,4.90,24.13,1018.44,2034.00,3007.63,2994.79,3241.18,350.27,349.98,5.77,0000 0000 0000 0000 000000
2015-03-12 00:45:08,0.17,1.12,0.00,21.79,27.12,30.32,4.77,24.20,1018.13,2034.00,3005.68,2993.30,3239.57,350.00,349.47,5.80,0000 0000 0000 0000 000000
2015-03-12 00:50:09,0.18,1.13,0.00,21.81,27.14,30.31,4.84,24.32,1018.08,2034.00,3003.60,2991.77,3237.85,349.80,349.57,5.83,0000 0000 0000 0000 000000
2015-03-12 00:55:10,0.18,1.13,0.00,21.85,27.15,30.33,4.84,24.51,1018.04,2034.00,3001.49,2990.22,3236.18,350.39,349.90,5.86,0000 0000 0000 0000 000000
2015-03-12 01:00:12,0.18,1.14,0.00,21.77,27.16,30.36,4.82,24.38,1017.82,2033.99,2999.48,2988.67,3234.49,350.19,349.60,5.89,0000 0000 0000 0000 000000
2015-03-12 01:05:13,0.21,1.14,0.00,21.74,27.17,30.37,4.78,24.48,1017.65,2033.98,2997.21,2986.89,3232.61,350.08,349.66,5.92,0000 0000 0000 0000 000000
2015-03-12 01:10:15,0.17,1.15,0.00,21.76,27.18,30.39,4.84,24.37,1017.59,2033.96,2995.09,2985.39,3230.84,350.26,349.64,5.95,0000 0000 0000 0000 000000
2015-03-12 01:15:16,0.18,1.15,0.00,21.77,27.20,30.39,4.76,24.43,1017.59,2033.97,2993.13,2983.83,3229.24,349.74,349.27,5.98,0000 0000 0000 0000 000000
2015-03-12 01:20:17,0.18,1.16,0.00,21.82,27.21,30.41,4.88,24.20,1017.61,2033.93,2990.99,2982.37,3227.53,350.13,349.61,6.01,0000 0000 0000 0000 000000
2015-03-12 01:25:18,0.18,1.16,0.00,21.82,27.22,30.39,4.77,24.30,1017.66,2033.90,2988.93,2980.86,3225.91,349.83,349.25,6.04,0000 0000 0000 0000 000000
2015-03-12 01:30:19,0.17,1.17,0.00,21.88,27.22,30.43,4.83,24.29,1017.77,2033.86,2986.85,2979.30,3224.21,350.31,349.71,6.07,0000 0000 0000 0000 000000
2015-03-12 01:35:21,0.18,1.17,0.00,21.90,27.25,30.45,4.88,24.27,1017.65,2033.73,2984.70,2977.71,3222.50,350.38,349.64,6.10,0000 0000 0000 0000 000000
2015-03-12 01:40:22,0.13,1.18,0.00,21.91,27.25,30.44,4.86,24.38,1017.60,2033.53,2982.69,2976.25,3220.84,350.45,349.68,6.12,0000 0000 0000 0000 000000
2015-03-12 01:45:24,0.22,1.19,0.00,21.94,27.27,30.45,4.83,24.38,1017.52,2033.56,2980.61,2974.71,3219.26,349.97,348.92,6.15,0000 0000 0000 0000 000000
2015-03-12 01:50:25,0.10,1.19,0.00,21.95,27.27,30.47,4.80,24.38,1017.31,2033.21,2978.52,2973.15,3217.51,349.86,349.13,6.18,0000 0000 0000 0000 000000
2015-03-12 01:55:26,0.19,1.19,0.00,21.95,27.29,30.49,4.84,24.44,1017.14,2033.13,2976.57,2971.69,3215.87,350.26,349.29,6.21,0000 0000 0000 0000 000000
2015-03-12 02:00:27,0.16,1.20,0.00,21.98,27.30,30.49,4.90,24.66,1017.11,2033.11,2974.51,2970.22,3214.29,350.35,349.30,6.24,0000 0000 0000 0000 000000
2015-03-12 02:05:29,0.20,1.20,0.00,21.99,27.31,30.55,4.81,24.43,1017.11,2033.04,2972.35,2968.61,3212.59,349.82,348.89,6.27,0000 0000 0000 0000 000000
2015-03-12 02:10:30,0.17,1.21,0.00,21.96,27.32,30.50,4.88,24.52,1017.03,2033.01,2970.31,2967.15,3210.94,350.43,349.51,6.30,0000 0000 0000 0000 000000
2015-03-12 02:15:32,0.18,1.22,0.00,21.95,27.34,30.54,4.88,24.57,1016.74,2033.01,2968.36,2965.70,3209.37,350.30,349.35,6.33,0000 0000 0000 0000 000000
2015-03-12 02:20:33,0.17,1.22,0.00,21.95,27.35,30.52,4.84,24.63,1016.62,2033.00,2966.35,2964.29,3207.74,350.58,349.57,6.36,0000 0000 0000 0000 000000
2015-03-12 02:25:34,0.19,1.23,0.00,21.98,27.36,30.54,4.76,24.54,1016.60,2033.00,2964.29,2962.74,3206.11,349.49,348.52,6.39,0000 0000 0000 0000 000000
2015-03-12 02:30:36,0.17,1.23,0.00,21.95,27.37,30.53,4.82,24.66,1016.60,2033.00,2962.32,2961.32,3204.55,350.22,349.06,6.42,0000 0000 0000 0000 000000
2015-03-12 02:35:37,0.20,1.24,0.00,21.92,27.38,30.54,4.79,24.51,1016.45,2033.00,2960.31,2959.78,3202.88,349.43,348.36,6.45,0000 0000 0000 0000 000000
2015-03-12 02:40:38,0.17,1.24,0.00,21.94,27.40,30.54,4.83,24.37,1016.56,2032.99,2958.19,2958.27,3201.22,349.47,348.64,6.48,0000 0000 0000 0000 000000
2015-03-12 02:45:39,0.18,1.25,0.00,21.95,27.40,30.56,4.81,24.41,1016.58,2032.99,2956.24,2956.85,3199.69,349.75,348.66,6.51,0000 0000 0000 0000 000000
2015-03-12 02:50:41,0.17,1.25,0.00,21.96,27.41,30.55,4.85,24.38,1016.59,2032.98,2954.34,2955.50,3198.34,350.54,349.25,6.53,0000 0000 0000 0000 000000
2015-03-12 02:55:42,0.17,1.26,0.00,21.97,27.42,30.56,4.81,24.52,1016.62,2032.98,2952.43,2954.08,3196.72,349.56,348.37,6.56,0000 0000 0000 0000 000000
2015-03-12 03:00:44,0.18,1.26,0.00,21.95,27.42,30.57,4.79,24.39,1016.58,2032.97,2950.38,2952.67,3195.21,350.07,348.88,6.59,0000 0000 0000 0000 000000
2015-03-12 03:05:45,0.16,1.27,0.00,21.97,27.44,30.58,4.83,24.34,1016.59,2032.87,2948.25,2951.10,3193.54,350.36,349.29,6.62,0000 0000 0000 0000 000000
2015-03-12 03:10:46,0.19,1.27,0.00,22.00,27.45,30.60,4.88,24.33,1016.62,2032.82,2946.31,2949.63,3191.97,350.41,349.20,6.65,0000 0000 0000 0000 000000
2015-03-12 03:15:48,0.14,1.28,0.00,22.05,27.45,30.60,4.82,24.12,1016.62,2032.78,2944.36,2948.19,3190.39,349.70,348.39,6.68,0000 0000 0000 0000 000000
2015-03-12 03:20:49,0.18,1.28,0.00,22.01,27.46,30.62,4.85,24.19,1016.62,2032.65,2942.21,2946.63,3188.64,349.13,347.94,6.71,0000 0000 0000 0000 000000
2015-03-12 03:25:50,0.20,1.29,0.00,22.02,27.47,30.60,4.75,24.04,1016.61,2032.56,2940.04,2944.93,3186.77,349.76,348.66,6.74,0000 0000 0000 0000 000000
2015-03-12 03:30:51,0.14,1.29,0.00,22.05,27.48,30.62,4.83,24.02,1016.61,2032.24,2937.80,2943.32,3184.93,349.71,348.53,6.77,0000 0000 0000 0000 000000
2015-03-12 03:35:53,0.25,1.30,0.00,22.13,27.50,30.65,4.83,24.02,1016.62,2032.31,2935.60,2941.61,3183.08,350.24,348.88,6.80,0000 0000 0000 0000 000000
2015-03-12 03:40:54,0.17,1.31,0.00,22.17,27.50,30.65,4.82,24.18,1016.62,2032.23,2933.40,2939.85,3181.09,350.37,348.97,6.83,0000 0000 0000 0000 000000
2015-03-12 03:45:55,0.19,1.31,0.00,22.22,27.52,30.69,4.84,23.97,1016.67,2032.21,2931.28,2938.29,3179.30,350.04,348.67,6.86,0000 0000 0000 0000 000000
2015-03-12 03:50:57,0.20,1.32,0.00,22.23,27.52,30.68,4.71,23.92,1016.66,2032.10,2928.93,2936.52,3177.30,349.54,348.20,6.89,0000 0000 0000 0000 000000
2015-03-12 03:55:58,0.21,1.32,0.00,22.28,27.55,30.71,4.81,24.06,1016.62,2032.01,2926.71,2934.71,3175.37,350.15,348.76,6.92,0000 0000 0000 0000 000000
2015-03-12 04:00:59,0.20,1.33,0.00,22.31,27.56,30.76,4.85,24.07,1016.53,2032.00,2924.56,2932.99,3173.52,350.33,348.80,6.94,0000 0000 0000 0000 000000
2015-03-12 04:06:00,0.21,1.34,0.00,22.32,27.57,30.77,4.78,23.93,1016.28,2032.00,2922.28,2931.36,3171.64,349.88,348.25,6.97,0000 0000 0000 0000 000000
2015-03-12 04:11:02,0.20,1.34,0.00,22.36,27.59,30.77,4.79,24.07,1016.27,2032.00,2920.27,2929.75,3169.85,349.80,348.10,7.00,0000 0000 0000 0000 000000
2015-03-12 04:16:03,0.19,1.35,0.00,22.40,27.60,30.81,4.85,23.99,1016.34,2032.00,2918.12,2928.18,3168.08,349.80,348.06,7.03,0000 0000 0000 0000 000000
2015-03-12 04:21:04,0.20,1.36,0.00,22.41,27.62,30.83,4.77,23.96,1016.16,2032.00,2916.07,2926.56,3166.33,349.71,347.94,7.06,0000 0000 0000 0000 000000
2015-03-12 04:26:06,0.19,1.36,0.00,22.45,27.64,30.83,4.78,24.11,1016.12,2032.00,2914.01,2925.01,3164.63,349.52,347.75,7.09,0000 0000 0000 0000 000000
2015-03-12 04:31:07,0.20,1.37,0.00,22.46,27.66,30.83,4.83,23.97,1016.06,2031.99,2911.93,2923.40,3162.80,349.97,348.13,7.12,0000 0000 0000 0000 000000
2015-03-12 04:36:08,0.20,1.37,0.00,22.49,27.67,30.87,4.80,24.07,1015.79,2031.98,2909.73,2921.79,3161.02,350.79,348.40,7.15,0000 0000 0000 0000 000000
2015-03-12 04:41:09,0.17,1.38,0.00,22.51,27.70,30.89,4.79,23.88,1015.71,2031.96,2907.70,2920.30,3159.35,350.35,348.31,7.18,0000 0000 0000 0000 000000
2015-03-12 04:46:11,0.19,1.38,0.00,22.51,27.72,30.91,4.78,24.17,1015.65,2031.84,2905.63,2918.67,3157.56,350.06,347.92,7.21,0000 0000 0000 0000 000000
2015-03-12 04:51:12,0.12,1.39,0.00,22.54,27.74,30.94,4.82,24.11,1015.67,2031.52,2903.54,2917.05,3155.77,350.01,347.85,7.24,0000 0000 0000 0000 000000
2015-03-12 04:56:13,0.16,1.39,0.00,22.58,27.76,30.96,4.77,24.01,1015.92,2031.19,2901.46,2915.54,3154.04,349.19,347.20,7.27,0000 0000 0000 0000 000000
2015-03-12 05:01:15,0.18,1.40,0.00,22.63,27.78,30.99,4.76,23.86,1016.13,2031.07,2899.36,2913.94,3152.34,349.89,347.74,7.30,0000 0000 0000 0000 000000
2015-03-12 05:06:16,0.20,1.40,0.00,22.64,27.80,30.98,4.72,23.88,1016.13,2031.01,2897.19,2912.35,3150.55,349.01,347.05,7.33,0000 0000 0000 0000 000000
2015-03-12 05:11:17,0.20,1.41,0.00,22.66,27.82,31.01,4.80,23.89,1016.13,2031.00,2895.24,2910.75,3148.87,350.32,348.08,7.35,0000 0000 0000 0000 000000
2015-03-12 05:16:18,0.18,1.41,0.00,22.69,27.85,31.02,4.79,23.78,1016.13,2031.00,2893.25,2909.17,3147.19,350.41,348.06,7.38,0000 0000 0000 0000 000000
2015-03-12 05:21:19,0.19,1.42,0.00,22.71,27.87,31.04,4.77,23.63,1016.13,2031.00,2891.33,2907.70,3145.62,350.11,348.03,7.41,0000 0000 0000 0000 000000
2015-03-12 05:26:21,0.17,1.43,0.00,22.72,27.89,31.09,4.77,23.68,1016.12,2030.97,2889.36,2906.26,3143.95,349.68,347.61,7.44,0000 0000 0000 0000 000000
2015-03-12 05:31:22,0.17,1.43,0.00,22.89,27.91,31.10,4.76,23.70,1016.13,2030.91,2887.37,2904.74,3142.37,349.69,347.42,7.47,0000 0000 0000 0000 000000
2015-03-12 05:36:24,0.13,1.44,0.00,23.27,27.94,31.12,4.79,23.69,1016.13,2030.69,2885.54,2903.35,3140.74,350.16,347.33,7.50,0000 0000 0000 0000 000000
2015-03-12 05:41:25,0.13,1.44,0.00,23.36,27.97,31.15,4.84,23.86,1016.13,2030.30,2883.54,2901.79,3139.10,350.44,347.37,7.53,0000 0000 0000 0000 000000
2015-03-12 05:46:26,0.15,1.44,0.00,23.32,27.99,31.15,4.74,23.70,1016.13,2030.06,2881.62,2900.29,3137.47,349.51,346.76,7.56,0000 0000 0000 0000 000000
2015-03-12 05:51:27,0.16,1.45,0.00,23.40,28.01,31.14,4.75,23.57,1016.13,2030.02,2879.86,2898.95,3136.02,349.67,347.00,7.59,0000 0000 0000 0000 000000
2015-03-12 05:56:29,0.16,1.45,0.00,23.43,28.02,31.12,4.79,23.52,1016.09,2030.03,2878.27,2897.63,3134.71,350.24,347.15,7.62,0000 0000 0000 0000 000000
2015-03-12 06:01:30,0.17,1.46,0.00,23.35,28.04,31.10,4.69,23.60,1015.97,2030.03,2876.40,2896.30,3133.25,349.56,346.62,7.65,0000 0000 0000 0000 000000
2015-03-12 06:06:31,0.19,1.46,0.00,23.29,28.05,31.11,4.83,23.71,1016.03,2030.01,2874.50,2894.84,3131.74,349.94,347.26,7.68,0000 0000 0000 0000 000000
2015-03-12 06:11:32,0.16,1.47,0.00,23.29,28.05,31.05,4.79,23.63,1015.84,2030.00,2872.79,2893.59,3130.37,350.00,347.01,7.71,0000 0000 0000 0000 000000
2015-03-12 06:16:33,0.16,1.47,0.00,23.34,28.06,31.04,4.78,23.73,1015.64,2030.00,2871.02,2892.30,3128.90,350.42,347.30,7.74,0000 0000 0000 0000 000000
2015-03-12 06:21:35,0.16,1.48,0.00,23.52,28.07,31.06,4.86,23.68,1015.60,2029.99,2869.14,2890.88,3127.49,350.48,347.21,7.77,0000 0000 0000 0000 000000
2015-03-12 06:26:35,0.17,1.48,0.00,23.58,28.07,31.08,4.81,23.76,1015.38,2029.99,2867.43,2889.60,3125.98,350.21,346.84,7.79,0000 0000 0000 0000 000000
2015-03-12 06:31:36,0.16,1.49,0.00,23.57,28.07,31.08,4.70,23.74,1015.21,2029.99,2865.73,2888.42,3124.66,350.06,346.76,7.82,0000 0000 0000 0000 000000
2015-03-12 06:36:38,0.14,1.49,0.00,23.59,28.07,31.06,4.73,23.57,1015.17,2029.99,2864.08,2887.15,3123.32,349.75,346.42,7.85,0000 0000 0000 0000 000000
2015-03-12 06:41:39,0.17,1.50,0.00,23.59,28.07,31.06,4.79,23.73,1015.14,2029.99,2862.34,2885.87,3121.95,350.23,346.73,7.88,0000 0000 0000 0000 000000
2015-03-12 06:46:40,0.17,1.50,0.00,23.59,28.07,31.06,4.73,23.87,1014.90,2029.98,2860.67,2884.68,3120.62,349.76,346.18,7.91,0000 0000 0000 0000 000000
2015-03-12 06:51:41,0.14,1.51,0.00,23.61,28.07,31.02,4.78,23.90,1014.68,2029.98,2859.04,2883.50,3119.30,349.87,346.24,7.94,0000 0000 0000 0000 000000
2015-03-12 06:56:42,0.14,1.51,0.00,23.47,28.07,30.99,4.77,23.69,1014.65,2029.99,2857.41,2882.34,3117.97,350.49,346.79,7.97,0000 0000 0000 0000 000000
2015-03-12 07:01:44,0.17,1.52,0.00,23.45,28.07,30.95,4.67,23.80,1014.65,2029.98,2855.61,2881.01,3116.60,349.73,346.23,8.00,0000 0000 0000 0000 000000
2015-03-12 07:06:45,0.18,1.52,0.00,23.57,28.05,30.96,4.76,23.79,1014.67,2029.98,2853.74,2879.66,3115.20,349.88,346.28,8.03,0000 0000 0000 0000 000000
2015-03-12 07:11:46,0.14,1.52,0.00,23.63,28.05,30.97,4.68,23.78,1014.68,2029.98,2852.15,2878.60,3113.77,349.59,345.95,8.06,0000 0000 0000 0000 000000
2015-03-12 07:16:48,0.16,1.53,0.00,23.61,28.05,30.98,4.67,23.77,1014.72,2029.99,2850.45,2877.38,3112.42,349.84,346.24,8.09,0000 0000 0000 0000 000000
2015-03-12 07:21:49,0.15,1.53,0.00,23.64,28.05,31.00,4.74,23.72,1014.81,2029.99,2848.77,2876.17,3111.01,350.22,346.66,8.12,0000 0000 0000 0000 000000
2015-03-12 07:26:51,0.15,1.54,0.00,23.67,28.05,30.99,4.72,23.78,1014.72,2029.99,2847.11,2874.94,3109.69,349.66,345.91,8.15,0000 0000 0000 0000 000000
2015-03-12 07:31:52,0.16,1.54,0.00,23.64,28.05,30.98,4.78,23.74,1014.67,2029.99,2845.49,2873.74,3108.45,350.22,346.47,8.17,0000 0000 0000 0000 000000
2015-03-12 07:36:53,0.17,1.55,0.00,23.67,28.04,30.96,4.86,23.77,1014.66,2029.98,2843.71,2872.43,3106.90,351.03,347.45,8.20,0000 0000 0000 0000 000000
2015-03-12 07:41:54,0.15,1.55,0.00,23.69,28.02,30.97,4.82,23.85,1014.66,2029.98,2841.94,2871.19,3105.52,350.39,346.60,8.23,0000 0000 0000 0000 000000
2015-03-12 07:46:56,0.15,1.56,0.00,23.67,28.02,30.95,4.74,23.70,1014.67,2029.98,2840.41,2869.91,3104.24,349.57,345.83,8.26,0000 0000 0000 0000 000000
2015-03-12 07:51:57,0.17,1.56,0.00,23.68,28.02,30.95,4.75,23.77,1014.71,2029.99,2838.72,2868.75,3102.86,350.16,346.26,8.29,0000 0000 0000 0000 000000
2015-03-12 07:56:59,0.15,1.57,0.00,23.70,28.01,30.91,4.73,23.61,1014.70,2029.99,2837.05,2867.61,3101.61,350.42,346.63,8.32,0000 0000 0000 0000 000000
2015-03-12 08:02:00,0.15,1.57,0.00,23.72,28.00,30.91,4.75,23.76,1014.68,2029.99,2835.46,2866.41,3100.33,350.39,346.69,8.35,0000 0000 0000 0000 000000
2015-03-12 08:07:01,0.17,1.58,0.00,23.72,28.00,30.91,4.88,23.98,1014.67,2029.99,2833.64,2865.10,3098.85,350.80,346.97,8.38,0000 0000 0000 0000 000000
2015-03-12 08:12:02,0.15,1.58,0.00,23.68,27.99,30.92,4.81,23.74,1014.67,2029.99,2832.05,2863.87,3097.54,350.65,346.94,8.41,0000 0000 0000 0000 000000
2015-03-12 08:17:04,0.17,1.59,0.00,23.68,27.97,30.88,4.76,23.60,1014.67,2029.99,2830.36,2862.63,3096.20,350.00,346.24,8.44,0000 0000 0000 0000 000000
2015-03-12 08:22:05,0.16,1.59,0.00,23.69,27.97,30.83,4.75,23.59,1014.66,2029.99,2828.67,2861.37,3094.77,349.87,346.17,8.47,0000 0000 0000 0000 000000
2015-03-12 08:27:06,0.14,1.60,0.00,23.73,27.97,30.81,4.81,23.67,1014.60,2029.99,2827.14,2860.33,3093.55,350.64,346.81,8.50,0000 0000 0000 0000 000000
2015-03-12 08:32:07,0.14,1.60,0.00,23.68,27.96,30.84,4.75,23.76,1014.34,2029.99,2825.50,2859.12,3092.29,349.65,345.41,8.53,0000 0000 0000 0000 000000
2015-03-12 08:37:08,0.15,1.61,0.00,23.69,27.95,30.86,4.75,23.62,1014.29,2029.99,2823.87,2857.93,3090.98,350.09,346.14,8.56,0000 0000 0000 0000 000000
2015-03-12 08:42:10,0.16,1.61,0.00,23.75,27.95,30.86,4.76,23.59,1014.18,2029.99,2822.32,2856.76,3089.72,349.79,345.87,8.58,0000 0000 0000 0000 000000
2015-03-12 08:47:11,0.15,1.61,0.00,23.73,27.95,30.84,4.78,23.71,1014.18,2029.99,2820.68,2855.67,3088.49,350.40,346.38,8.61,0000 0000 0000 0000 000000
2015-03-12 08:52:12,0.14,1.62,0.00,23.69,27.94,30.84,4.68,23.79,1014.17,2030.00,2819.20,2854.53,3087.32,349.72,345.66,8.64,0000 0000 0000 0000 000000
2015-03-12 08:57:14,0.15,1.62,0.00,23.66,27.92,30.83,4.73,23.67,1014.03,2030.01,2817.60,2853.42,3085.99,350.14,346.42,8.67,0000 0000 0000 0000 000000
2015-03-12 09:02:15,0.16,1.63,0.00,23.70,27.92,30.80,4.76,23.47,1014.06,2030.00,2815.86,2852.10,3084.60,350.16,346.15,8.70,0000 0000 0000 0000 000000
2015-03-12 09:07:16,0.14,1.63,0.00,23.77,27.92,30.79,4.76,23.68,1014.09,2030.01,2814.24,2850.88,3083.19,350.21,346.13,8.73,0000 0000 0000 0000 000000
2015-03-12 09:12:17,0.17,1.64,0.00,23.77,27.90,30.78,4.71,23.69,1013.88,2030.01,2812.72,2849.72,3081.93,349.62,345.77,8.76,0000 0000 0000 0000 000000
2015-03-12 09:17:19,0.16,1.64,0.00,23.72,27.90,30.77,4.82,23.57,1013.78,2030.02,2811.05,2848.59,3080.65,350.73,346.56,8.79,0000 0000 0000 0000 000000
2015-03-12 09:22:20,0.15,1.65,0.00,23.71,27.90,30.77,4.80,23.63,1013.70,2030.01,2809.37,2847.32,3079.33,350.83,346.68,8.82,0000 0000 0000 0000 000000
2015-03-12 09:27:22,0.18,1.65,0.00,23.78,27.88,30.77,4.83,23.66,1013.69,2030.02,2807.66,2845.97,3077.84,350.81,346.56,8.85,0000 0000 0000 0000 000000
2015-03-12 09:32:23,0.17,1.66,0.00,23.79,27.87,30.74,4.71,23.48,1013.69,2030.07,2805.95,2844.75,3076.55,349.86,345.63,8.88,0000 0000 0000 0000 000000
2015-03-12 09:37:24,0.16,1.66,0.00,23.75,27.87,30.74,4.74,23.69,1013.69,2030.10,2804.35,2843.58,3075.26,349.88,345.77,8.91,0000 0000 0000 0000 000000
2015-03-12 09:42:26,0.17,1.67,0.00,23.71,27.85,30.72,4.83,23.51,1013.69,2030.19,2802.68,2842.42,3073.87,351.42,347.29,8.94,0000 0000 0000 0000 000000
2015-03-12 09:47:26,0.16,1.67,0.00,23.77,27.85,30.71,4.69,23.49,1013.69,2030.18,2800.92,2841.14,3072.55,349.62,345.80,8.97,0000 0000 0000 0000 000000
2015-03-12 09:52:28,0.21,1.68,0.00,23.77,27.85,30.70,4.71,23.65,1013.69,2030.50,2799.38,2839.95,3071.29,349.85,345.50,9.00,0000 0000 0000 0000 000000
2015-03-12 09:57:29,0.17,1.68,0.00,23.81,27.83,30.69,4.80,23.68,1013.69,2030.53,2797.60,2838.74,3069.91,350.85,346.79,9.02,0000 0000 0000 0000 000000
2015-03-12 10:02:30,0.22,1.69,0.00,23.80,27.82,30.69,4.76,23.67,1013.69,2030.69,2795.85,2837.49,3068.64,349.53,345.25,9.05,0000 0000 0000 0000 000000
2015-03-12 10:07:31,0.12,1.69,0.00,23.79,27.82,30.70,4.78,23.67,1013.71,2030.57,2794.04,2836.16,3067.23,350.84,346.51,9.08,0000 0000 0000 0000 000000
2015-03-12 10:12:33,0.22,1.70,0.00,23.81,27.80,30.68,4.75,23.41,1013.71,2030.91,2792.51,2834.99,3065.87,350.57,346.38,9.11,0000 0000 0000 0000 000000
2015-03-12 10:17:34,0.18,1.70,0.00,23.84,27.80,30.65,4.68,23.36,1013.71,2030.90,2790.70,2833.74,3064.53,349.93,345.56,9.14,0000 0000 0000 0000 000000
2015-03-12 10:22:35,0.16,1.71,0.00,23.86,27.80,30.64,4.74,23.50,1013.69,2030.94,2788.93,2832.51,3063.20,349.70,345.46,9.17,0000 0000 0000 0000 000000
2015-03-12 10:27:36,0.15,1.72,0.00,23.88,27.79,30.65,4.74,23.68,1013.69,2030.96,2787.32,2831.28,3061.84,350.04,345.70,9.20,0000 0000 0000 0000 000000
2015-03-12 10:32:37,0.16,1.72,0.00,23.89,27.77,30.62,4.79,23.61,1013.69,2030.98,2785.60,2830.10,3060.49,350.42,346.09,9.23,0000 0000 0000 0000 000000
2015-03-12 10:37:38,0.19,1.73,0.00,23.89,27.77,30.62,4.75,23.43,1013.65,2030.97,2783.79,2828.77,3058.99,350.46,346.18,9.26,0000 0000 0000 0000 000000
2015-03-12 10:42:39,0.17,1.73,0.00,23.93,27.77,30.62,4.70,23.45,1013.63,2030.97,2781.97,2827.51,3057.62,350.15,345.63,9.29,0000 0000 0000 0000 000000
2015-03-12 10:47:41,0.15,1.74,0.00,23.94,27.75,30.59,4.75,23.61,1013.66,2030.98,2780.31,2826.34,3056.33,349.78,345.42,9.32,0000 0000 0000 0000 000000
2015-03-12 10:52:42,0.17,1.74,0.00,23.93,27.75,30.56,4.73,23.43,1013.59,2030.99,2778.56,2825.02,3054.83,350.33,346.00,9.35,0000 0000 0000 0000 000000
2015-03-12 10:57:43,0.18,1.75,0.00,23.96,27.74,30.56,4.73,23.66,1013.62,2030.99,2776.82,2823.78,3053.54,349.53,345.27,9.38,0000 0000 0000 0000 000000
2015-03-12 11:02:45,0.15,1.75,0.00,23.98,27.72,30.54,4.68,23.53,1013.66,2030.99,2775.10,2822.59,3052.17,350.12,345.55,9.40,0000 0000 0000 0000 000000
2015-03-12 11:07:47,0.19,1.76,0.00,23.98,27.72,30.54,4.75,23.46,1013.40,2030.99,2773.21,2821.23,3050.59,350.15,345.77,9.43,0000 0000 0000 0000 000000
2015-03-12 11:12:48,0.15,1.76,0.00,24.00,27.72,30.49,4.69,23.45,1013.23,2030.99,2771.47,2819.99,3049.26,349.95,344.85,9.46,0000 0000 0000 0000 000000
2015-03-12 11:17:49,0.19,1.77,0.00,24.01,27.70,30.52,4.73,23.52,1013.20,2031.00,2769.66,2818.71,3047.87,349.82,345.16,9.49,0000 0000 0000 0000 000000
2015-03-12 11:22:50,0.17,1.77,0.00,24.03,27.70,30.49,4.72,23.32,1013.05,2031.00,2767.88,2817.47,3046.52,349.44,344.68,9.52,0000 0000 0000 0000 000000
2015-03-12 11:27:52,0.17,1.78,0.00,24.02,27.70,30.49,4.74,23.28,1012.74,2031.00,2766.02,2816.14,3044.98,350.34,345.38,9.55,0000 0000 0000 0000 000000
2015-03-12 11:32:53,0.16,1.78,0.00,24.06,27.67,30.45,4.73,23.32,1012.70,2031.00,2764.30,2814.92,3043.63,350.13,345.08,9.58,0000 0000 0000 0000 000000
2015-03-12 11:37:55,0.17,1.79,0.00,24.04,27.67,30.46,4.71,23.35,1012.69,2031.01,2762.53,2813.72,3042.25,349.77,344.84,9.61,0000 0000 0000 0000 000000
2015-03-12 11:42:56,0.17,1.79,0.00,24.05,27.67,30.48,4.70,23.43,1012.61,2031.02,2760.84,2812.52,3040.83,349.84,344.92,9.64,0000 0000 0000 0000 000000
2015-03-12 11:47:57,0.16,1.80,0.00,24.04,27.65,30.46,4.71,23.52,1012.63,2031.02,2759.06,2811.23,3039.51,350.13,345.40,9.67,0000 0000 0000 0000 000000
2015-03-12 11:52:58,0.17,1.80,0.00,24.02,27.65,30.46,4.78,23.47,1012.32,2031.03,2757.23,2809.89,3037.96,349.92,345.25,9.70,0000 0000 0000 0000 000000
2015-03-12 11:58:00,0.19,1.81,0.00,24.02,27.65,30.45,4.67,23.59,1012.24,2031.03,2755.52,2808.68,3036.63,349.72,344.73,9.73,0000 0000 0000 0000 000000
2015-03-12 12:03:01,0.17,1.81,0.00,24.04,27.63,30.43,4.70,23.56,1012.26,2031.05,2753.70,2807.44,3035.19,350.03,344.98,9.76,0000 0000 0000 0000 000000
2015-03-12 12:08:02,0.18,1.82,0.00,24.06,27.62,30.43,4.65,23.63,1012.27,2031.03,2751.89,2805.98,3033.63,349.26,344.25,9.79,0000 0000 0000 0000 000000
2015-03-12 12:13:03,0.17,1.82,0.00,24.04,27.62,30.40,4.74,23.41,1012.24,2031.02,2750.22,2804.69,3032.23,350.32,345.27,9.82,0000 0000 0000 0000 000000
2015-03-12 12:18:05,0.18,1.83,0.00,24.05,27.60,30.38,4.75,23.67,1012.22,2031.04,2748.48,2803.48,3030.80,349.84,344.85,9.84,0000 0000 0000 0000 000000
2015-03-12 12:23:06,0.18,1.83,0.00,24.07,27.60,30.42,4.68,23.32,1012.22,2031.14,2746.73,2802.20,3029.45,350.52,345.49,9.87,0000 0000 0000 0000 000000
2015-03-12 12:28:07,0.19,1.84,0.00,24.04,27.60,30.40,4.70,23.43,1011.99,2031.22,2744.93,2800.88,3028.02,350.01,344.99,9.90,0000 0000 0000 0000 000000
2015-03-12 12:33:09,0.20,1.85,0.00,24.11,27.58,30.39,4.71,23.42,1011.79,2031.34,2743.09,2799.62,3026.58,350.25,344.98,9.93,0000 0000 0000 0000 000000
2015-03-12 12:38:10,0.18,1.85,0.00,24.07,27.57,30.39,4.74,23.45,1011.75,2031.35,2741.25,2798.24,3025.02,350.32,345.09,9.96,0000 0000 0000 0000 000000
2015-03-12 12:43:11,0.18,1.86,0.00,24.04,27.57,30.39,4.70,23.43,1011.74,2031.27,2739.33,2796.71,3023.46,350.15,345.05,9.99,0000 0000 0000 0000 000000
2015-03-12 12:48:13,0.19,1.86,0.00,24.10,27.56,30.38,4.74,23.36,1011.76,2031.28,2737.47,2795.41,3021.84,350.79,345.55,10.02,0000 0000 0000 0000 000000
2015-03-12 12:53:14,0.22,1.87,0.00,24.09,27.55,30.39,4.74,23.35,1011.76,2031.44,2735.59,2793.97,3020.37,349.98,344.74,10.05,0000 0000 0000 0000 000000
2015-03-12 12:58:15,0.23,1.88,0.00,24.08,27.55,30.36,4.67,23.35,1011.74,2031.66,2733.74,2792.66,3018.83,349.38,344.20,10.08,0000 0000 0000 0000 000000
2015-03-12 13:03:17,0.17,1.88,0.00,24.13,27.55,30.34,4.75,23.55,1011.72,2031.73,2731.82,2791.22,3017.33,350.79,345.42,10.11,0000 0000 0000 0000 000000
2015-03-12 13:08:18,0.24,1.89,0.00,24.09,27.53,30.37,4.73,23.53,1011.57,2031.84,2729.92,2789.79,3015.75,350.58,345.22,10.14,0000 0000 0000 0000 000000